Weather History for Hatteras, NC

Change the Weather History Date:

Sunday, November 16, 2014

  Actual Average Record
Temperature  
Mean Temperature 55 °F 58 °F  
Max Temperature 67 °F 64 °F 78 °F (1988)
Min Temperature 43 °F 51 °F 25 °F (1967)
Degree Days  
Heating Degree Days 10 8  
Month to date heating degree days 150 102  
Since 1 July heating degree days 210 177  
Cooling Degree Days 0 1  
Month to date cooling degree days 0 16  
Year to date cooling degree days 1762 1706  
Growing Degree Days 5 (Base 50)    
Moisture  
Dew Point 54 °F    
Average Humidity 88    
Maximum Humidity 100    
Minimum Humidity 76    
Precipitation  
Precipitation 0.35 in 0.17 in 3.36 in (2002)
Month to date precipitation 2.48 2.83  
Year to date precipitation 57.60 51.65  
Snow  
Snow 0.00 in - - ()
Month to date snowfall 0.0  
Since 1 July snowfall 0.0  
Snow Depth 0.00 in    
Sea Level Pressure  
Sea Level Pressure 30.19 in    
Wind  
Wind Speed 8 mph (ESE)    
Max Wind Speed 23 mph    
Max Gust Speed 31 mph    
Visibility 8 miles    
Events Rain    
T = Trace of Precipitation, MM = Missing Value Source: NWS Daily Summary

Daily Weather History Graph

Daily Weather History Graph

Search for Another Location

Airport:

Trip Planner

Search our weather history database for the weather conditions in past years. The results will help you decide how hot, cold, wet, or windy it might be!

Date:

Astronomy

Nov. 16, 2014 Rise Set
Actual Time 6:38 AM EST 4:55 PM EST
Civil Twilight 6:11 AM EST 5:22 PM EST
Nautical Twilight 5:40 AM EST 5:53 PM EST
Astronomical Twilight 5:10 AM EST 6:23 PM EST
Moon 12:55 AM EST (11/16) 1:36 PM EST (11/16)
Length of Visible Light 11h 11m
Length of Day
10h 17m
Waning Crescent, 31% of the Moon is Illuminated
Nov 16
Waning Crescent
Nov 22
New
Nov 29
First Quarter
Dec 6
Full
Dec 14
Last Quarter

Hourly Weather History & Observations

Time (EST) Temp. Windchill Dew Point Humidity Pressure Visibility Wind Dir Wind Speed Gust Speed Precip Events Conditions
12:51 AM 44.1 °F 41.5 °F 37.0 °F 76% 30.35 in 10.0 mi NNE 4.6 mph - N/A   Clear
1:51 AM 44.1 °F 41.5 °F 37.9 °F 79% 30.35 in 10.0 mi Variable 4.6 mph - N/A   Clear
2:51 AM 45.0 °F 41.8 °F 39.9 °F 82% 30.35 in 10.0 mi Variable 5.8 mph - N/A   Clear
3:51 AM 46.0 °F 43.1 °F 39.9 °F 79% 30.34 in 10.0 mi Variable 5.8 mph - N/A   Clear
4:51 AM 46.0 °F 42.5 °F 41.0 °F 83% 30.34 in 10.0 mi NE 6.9 mph - N/A   Clear
5:51 AM 46.0 °F 43.1 °F 43.0 °F 89% 30.34 in 10.0 mi NNE 5.8 mph - N/A   Clear
6:51 AM 46.0 °F 43.9 °F 43.0 °F 89% 30.35 in 10.0 mi NE 4.6 mph - N/A   Mostly Cloudy
7:51 AM 50.0 °F - 46.9 °F 89% 30.35 in 10.0 mi Variable 3.5 mph - N/A   Clear
8:51 AM 55.9 °F - 50.0 °F 80% 30.34 in 10.0 mi East 8.1 mph - N/A   Mostly Cloudy
9:51 AM 57.0 °F - 51.1 °F 81% 30.33 in 10.0 mi ENE 5.8 mph - N/A   Overcast
10:51 AM 55.9 °F - 51.1 °F 84% 30.30 in 10.0 mi Variable 3.5 mph - N/A   Overcast
11:51 AM 57.0 °F - 52.0 °F 83% 30.27 in 10.0 mi NNE 8.1 mph - N/A   Overcast
12:51 PM 57.9 °F - 51.1 °F 78% 30.22 in 10.0 mi Variable 5.8 mph - N/A   Overcast
1:51 PM 57.0 °F - 51.1 °F 81% 30.19 in 10.0 mi NNE 6.9 mph - N/A   Overcast
2:51 PM 55.0 °F - 52.0 °F 89% 30.19 in 10.0 mi North 3.5 mph - N/A   Overcast
3:51 PM 55.9 °F - 53.1 °F 90% 30.19 in 10.0 mi North 4.6 mph - N/A   Overcast
4:51 PM 55.9 °F - 54.0 °F 93% 30.17 in 10.0 mi North 3.5 mph - N/A   Overcast
5:51 PM 62.1 °F - 57.9 °F 86% 30.16 in 10.0 mi SE 4.6 mph - N/A   Overcast
6:51 PM 63.0 °F - 57.9 °F 84% 30.14 in 10.0 mi SE 8.1 mph - N/A   Overcast
7:51 PM 63.0 °F - 59.0 °F 87% 30.12 in 10.0 mi SSE 16.1 mph - 0.00 in Rain Light Rain
8:51 PM 62.1 °F - 61.0 °F 96% 30.11 in 6.0 mi ESE 12.7 mph - 0.04 in Rain Light Rain
9:25 PM 62.1 °F - 61.0 °F 96% 30.09 in 4.0 mi SE 15.0 mph 21.9 mph 0.04 in Rain Light Rain
9:51 PM 63.0 °F - 62.1 °F 97% 30.07 in 2.0 mi SE 17.3 mph - 0.11 in Rain Heavy Rain
9:58 PM 63.0 °F - 62.1 °F 97% 30.08 in 1.8 mi SSE 18.4 mph - 0.08 in Rain Heavy Rain
10:15 PM 63.0 °F - 62.1 °F 97% 30.07 in 2.0 mi SSE 19.6 mph 28.8 mph 0.19 in Rain Light Rain
10:25 PM 63.0 °F - 62.1 °F 97% 30.06 in 4.0 mi SSE 13.8 mph 23.0 mph 0.20 in Rain Light Rain
10:51 PM 64.0 °F - 63.0 °F 96% 30.05 in 8.0 mi SSE 17.3 mph - 0.20 in   Overcast
11:05 PM 66.0 °F - 64.9 °F 96% 30.04 in 7.0 mi South 20.7 mph 27.6 mph N/A   Overcast
11:30 PM 66.0 °F - 64.9 °F 96% 30.02 in 7.0 mi South 23.0 mph - N/A   Overcast
11:37 PM 66.0 °F - 64.9 °F 96% 30.02 in 6.0 mi South 19.6 mph - N/A   Mostly Cloudy
11:51 PM 66.9 °F - 64.9 °F 93% 30.01 in 6.0 mi South 17.3 mph 26.5 mph N/A   Mostly Cloudy